Regional Weather Roundup
Issued by NWS

Home | Current Version | Previous Version | Graphics & Text | Print | Product List | Glossary On
Versions: 1 2 3 4 5 6 7 8 9 10 11 12 13 14 15 16 17 18 19 20 21 22 23 24 25 26 27 28 29 30 31 32 33 34 35 36 37 38 39 40 41 42 43 44 45 46 47 48 49 50
000
ASUS43 KIND 280359
RWRIN

WEATHER ROUNDUP FOR INDIANA
NATIONAL WEATHER SERVICE INDIANAPOLIS IN
1200 AM EDT SAT MAR 28 2015

NOTE: "FAIR" INDICATES FEW OR NO CLOUDS BELOW 12,000 FEET WITH NO
SIGNIFICANT WEATHER AND/OR OBSTRUCTIONS TO VISIBILITY.

* - STATION DOES NOT REPORT WEATHER SUCH AS PRECIPITATION OR FOG.

+ - STATION NOT QUALITY CONTROLLED BY THE NATIONAL WEATHER SERVICE.
    USE DATA WITH CAUTION...ESPECIALLY DEWPOINT AND RELATIVE
    HUMIDITY OBSERVATIONS.

INZ001>003-010>013-019-020-280500-
NORTHWEST INDIANA

CITY           SKY/WX    TMP DP  RH WIND       PRES   REMARKS

$$

LMZ046-743>745-280500-
SOUTHERN LAKE MICHIGAN

STATION/POSITION TIME  TEMP WIND        PRES
                       AIR  DIR/SP/G
                 (UTC) (F)  (DEG/KT/KT) (MB)
BURNS HARBOR     0300   26   20/ 21/ 24 1023.0S
MICHIGAN CITY    0300   24  350/ 23/ 26   N/A

$$

INZ004-005-014>016-021>024-280500-
NORTH CENTRAL INDIANA

CITY           SKY/WX    TMP DP  RH WIND       PRES   REMARKS
GOSHEN         CLEAR     20  11  68 N10       30.16R WCI   9
SOUTH BEND     CLEAR     17  10  74 NW6       30.18R WCI   9

$$

INZ006>009-017-018-025>027-280500-
NORTHEAST INDIANA

CITY           SKY/WX    TMP DP  RH WIND       PRES   REMARKS
ANGOLA *+      CLEAR     19  12  73 N7        30.12R WCI  10
FORT WAYNE     CLEAR     21  12  68 NW10      30.15R WCI  10

$$

INZ028-029-035-036-043>045-051>053-280500-
WEST CENTRAL INDIANA

CITY           SKY/WX    TMP DP  RH WIND       PRES   REMARKS
CRAWFORDSVL +  CLEAR     21  10  62 N8        30.18R WCI  11
GREENCASTLE +  CLEAR     23  10  58 N8        30.18R WCI  14
LAFAYETTE      CLEAR     21  12  68 N7        30.20R WCI  12
TERRE HAUTE    CLEAR     26  14  60 NE7       30.20R WCI  18

$$

INZ030>032-037>040-046>048-054>057-064-065-280500-
CENTRAL INDIANA

CITY           SKY/WX    TMP DP  RH WIND       PRES   REMARKS
GREENWOOD *+   CLEAR     23   9  54 N12       30.16R WCI  12
INDIANAPOLIS   CLEAR     23  10  57 N12       30.15R WCI  12
-EAGLE CREEK   CLEAR     22  10  60 N12G21    30.16R WCI  10
KOKOMO *+        N/A     21  10  63 N12       30.17R WCI   9
MT COMFORT *+  PTCLDY    23   7  50 N13       30.16R WCI  11
SHELBYVILLE    CLOUDY    26  13  57 NW12      30.14S WCI  16

$$

INZ033-034-041-042-049-050-058-059-280500-
EAST CENTRAL INDIANA

CITY           SKY/WX    TMP DP  RH WIND       PRES   REMARKS
MUNCIE         CLEAR     22  13  68 N13       30.14R WCI  10

$$

INZ060-061-067>069-081>083-085>088-280500-
SOUTHWEST INDIANA

CITY           SKY/WX    TMP DP  RH WIND       PRES   REMARKS
EVANSVILLE     CLEAR     32  20  61 N5        30.19R WCI  27
HUNTINGBURG *+ CLEAR     28  18  64 N7        30.18R WCI  21

$$

INZ062-063-066-070>080-084-089>092-280500-
SOUTH CENTRAL AND SOUTHEAST INDIANA

CITY           SKY/WX    TMP DP  RH WIND       PRES   REMARKS
BLOOMINGTON    CLEAR     24  16  71 N8        30.16R WCI  15
SEYMOUR +      CLEAR     28  18  64 N8        30.16R WCI  20

$$



USA.gov is the U.S. government's official web portal to all federal, state and local government web resources and services.